Tracking 19572 objects as of 23-Feb-2019
HD Live streaming from Space Station
objects crossing your sky now

NAVSTAR 10 (USA 5)

Track NAVSTAR 10 (USA 5) now!
NAVSTAR 10 (USA 5) is classified as:


NORAD ID: 15271
Int'l Code: 1984-097A
Perigee: 20,557.7 km
Apogee: 21,271.9 km
Inclination: 63.5 °
Period: 747.6 minutes
Semi major axis: 27285 km
RCS: 1.5246 m2 (large)
Launch date: September 8, 1984
Source: United States (US)
Launch site: AIR FORCE WESTERN TEST RANGE (AFWTR)
aabbcc
Your satellite tracking list
Your tracking list is empty




NASA's NSSDC Master Catalog

Two Line Element Set (TLE):
1 15271U 84097A   19053.05644411 -.00000068  00000-0  00000+0 0  9991
2 15271  63.5420  10.0810 0130881 228.1868 131.6782  1.92618369244849
Source of the keplerian elements: AFSPC